This demonstration page uses our WeatherBlox Daily Observations layout. Learn more.

41.55636, -103.73856

Hourly Observations for May 27, 2019

Temp ( °F °C ) Dew Point ( °F °C ) Humidity (%) Winds ( mph kmh ) Pressure ( in mb ) Visibility ( mi km ) Precip ( " mm )
12:53 am 00:53 Clear 52 11.1 49 9.4 89 89 NW 6 9 29.71 1006 10 16.09344 0 0
1:53 am 01:53 Clear 51 10.6 49 9.4 92 92 NW 7 11 29.68 1005 10 16.09344 0 0
2:53 am 02:53 Mostly Cloudy 54 12.2 51 10.6 90 90 N 12 19 29.74 1007 10 16.09344 0 0
3:04 am 03:04 Cloudy 54 12 54 12 100 100 N 8 13 29.77 1008 10 16.09344 0 0
3:39 am 03:39 Cloudy with Mist and Fog 55 12.8 55 12.8 100 100 NNE 9 15 29.74 1007 6 9.656064 0 0
3:53 am 03:53 Cloudy 55 12.8 55 12.8 100 100 NNE 12 19 29.74 1007 9 14.484096 0 0
4:08 am 04:08 Mostly Cloudy 54 12 54 12 100 100 NNE 10 17 29.77 1008 10 16.09344 0 0
4:44 am 04:44 Cloudy 55 12.8 54 12.2 96 96 NE 12 19 29.74 1007 10 16.09344 0 0
4:53 am 04:53 Mostly Cloudy 54 12.2 53 11.7 97 97 NE 12 19 29.71 1006 10 16.09344 0 0
5:07 am 05:07 Mostly Cloudy 53 11.7 53 11.7 100 100 NNE 7 11 29.77 1008 10 16.09344 0 0
5:53 am 05:53 Cloudy 53 11.7 53 11.7 100 100 NW 5 7 29.74 1007 10 16.09344 0 0
6:25 am 06:25 Cloudy 55 12.8 53 11.7 93 93 N 5 7 29.74 1007 10 16.09344 0 0
6:53 am 06:53 Cloudy 56 13.3 53 11.7 90 90 Calm 29.74 1007 10 16.09344 0 0
7:53 am 07:53 Mostly Sunny 59 15 53 11.7 81 81 NNE 6 9 29.71 1006 10 16.09344 0 0
8:21 am 08:21 Mostly Cloudy 59 15 53 11.7 81 81 E 14 22 29.71 1006 10 16.09344 0 0
8:53 am 08:53 Cloudy 59 15 53 11.7 81 81 undefined N/A 29.74 1007 10 16.09344 0 0
9:53 am 09:53 Cloudy 58 14.4 52 11.1 81 81 NE 13 20 29.77 1008 10 16.09344 0 0
10:53 am 10:53 Cloudy 58 14.4 53 11.7 84 84 ENE 14 22 29.77 1008 10 16.09344 0 0
11:53 am 11:53 Cloudy 60 15.6 52 11.1 75 75 E 13 20 29.74 1007 10 16.09344 0 0
12:06 pm 12:06 Cloudy 60 15.6 52 11.1 75 75 ENE 18 30 29.68 1005 10 16.09344 0 0
12:13 pm 12:13 Cloudy 59 15 52 11.1 78 78 ENE 20 31 29.68 1005 10 16.09344 0 0
12:53 pm 12:53 Cloudy 61 16.1 51 10.6 70 70 ENE 18 30 29.71 1006 10 16.09344 0 0
1:53 pm 13:53 Cloudy 62 16.7 52 11.1 70 70 ENE 16 26 29.71 1006 10 16.09344 0 0
2:53 pm 14:53 Cloudy 60 15.6 52 11.1 75 75 ENE 18 30 29.68 1005 10 16.09344 0 0
3:53 pm 15:53 Mostly Sunny 60 15.6 52 11.1 75 75 ENE 22 35 29.65 1004 10 16.09344 0 0
4:53 pm 16:53 Mostly Cloudy 58 14.4 52 11.1 81 81 NE 17 28 29.68 1005 10 16.09344 0 0
5:30 pm 17:30 Cloudy with Nearby Thunderstorms 55 13 54 12 94 94 ENE 25 41 29.59 1002 10 16.09344 0 0
5:42 pm 17:42 Windy with Storms Likely 55 13 54 12 94 94 NE 25 41 29.59 1002 10 16.09344 0 0
5:53 pm 17:53 Windy with Storms Likely 52 11.1 49 9.4 89 89 W 30 48 29.71 1006 5 8.04672 0.01 0.254
5:55 pm 17:55 Cloudy with Thunderstorms 50 10 47 8.3 89 89 SW 21 33 29.74 1007 1.5 2.414016 0.001 0.001
6:04 pm 18:04 Cloudy with Light Thunderstorms 49 9.4 46 7.8 90 90 WSW 8 13 29.77 1008 1.25 2.01168 0.57 14.478
6:06 pm 18:06 Cloudy with Light Thunderstorms 48 9 46 8 94 94 SW 9 15 29.77 1008 3 4.828032 0 0
6:29 pm 18:29 Cloudy with Nearby Thunderstorms 47 8.3 46 7.8 97 97 W 7 11 29.74 1007 3 4.828032 0.63 16.002
6:39 pm 18:39 Cloudy with Light Rain 46 7.8 46 7.8 100 100 N 10 17 29.74 1007 6 9.656064 0.65 16.51
6:53 pm 18:53 Cloudy with Light Rain 48 8.9 47 8.3 96 96 NNW 10 17 29.74 1007 7 11.265408 0.65 16.51
7:53 pm 19:53 Cloudy with Light Rain 52 11.1 50 10 93 93 NNE 18 30 29.71 1006 10 16.09344 0.09 2.286
8:53 pm 20:53 Mostly Cloudy 51 10.6 50 10 96 96 NNE 16 26 29.68 1005 10 16.09344 0.001 0.001
9:53 pm 21:53 Mostly Clear 51 10.6 50 10 96 96 NNE 10 17 29.74 1007 10 16.09344 0 0
10:21 pm 22:21 Mostly Cloudy 53 11.7 50 10 89 89 NE 14 22 29.74 1007 10 16.09344 0 0
10:37 pm 22:37 Mostly Cloudy 52 11.1 51 10.6 97 97 VRB 3 6 29.74 1007 10 16.09344 0 0
10:49 pm 22:49 Cloudy 52 11 52 11 100 100 NNE 8 13 29.74 1007 10 16.09344 0 0
10:53 pm 22:53 Cloudy 52 11.1 51 10.6 97 97 NNE 8 13 29.71 1006 10 16.09344 0 0
11:53 pm 23:53 Cloudy 52 11.1 52 11.1 100 100 W 5 7 29.71 1006 10 16.09344 0 0

Powered by AerisWeather